[[{"header":{"parameterUnit":"m.s-1","parameterCategory":1,"la1":30.2991,"la2":30.254,"lo1":-89.0895,"lo2":-89.0444,"dx":0.0017,"dy":0.0017,"nx":28,"ny":28,"refTime":"2022-11-15T09:00:00:Z","depth":0,"parameterNumber":2,"parameterNumberName":"U-component_of_WINDS"},"data":[0,0,0,0,0,0,0,0,0,0,0,0,0,0,0,0,0,0,0,0,0,0,0,0,0,0,0,0,0,0,0,0,0,0,0,0,0,0,0,0,0,0,0,0,0,0,0,0,0,0,0,0,0,0,0,0,0,0,3.1334,3.1334,0,3.1335,3.1335,3.1335,3.1296,3.1295,3.1294,3.1293,3.1294,3.1295,3.1296,0,0,0,0,0,0,0,0,0,0,0,0,0,3.1298,3.1299,3.1334,3.1334,3.1334,3.1335,3.1335,3.1335,3.1296,3.1295,3.1294,3.1292,3.1294,3.1295,3.1296,0,0,0,0,0,0,0,0,0,0,0,0,0,3.1308,3.1299,3.1334,3.1314,3.1313,3.1335,3.1335,3.1335,3.1296,3.1295,3.1293,3.1292,3.1293,3.1295,3.1296,3.1337,0,0,3.1301,3.1302,0,0,0,0,0,0,0,0,3.1307,3.1309,3.1317,3.1316,3.1314,3.1314,3.1323,3.1336,3.1297,3.1303,3.1293,3.1291,3.1302,3.1303,3.1306,3.1337,3.1337,3.1301,3.1302,3.1303,3.1303,0,0,0,0,0,0,0,3.1307,3.1309,3.1334,3.1317,3.1315,3.1306,3.1306,3.1325,3.1311,3.1302,3.1299,3.13,3.1301,3.1305,3.1306,3.1337,3.1301,3.1302,3.1303,3.1304,3.1404,3.1406,0,0,0,0,0,0,3.1309,3.1309,3.1334,3.1334,3.1307,3.1308,3.1308,3.1316,3.1311,3.1309,3.1301,3.1298,3.1303,3.1304,3.1306,3.1355,3.1303,3.1304,3.1305,3.1402,3.1405,3.1407,0,0,0,0,0,0,3.1308,3.1311,3.1334,3.1321,3.1323,3.131,3.1319,3.1316,3.1321,3.131,3.1308,3.1308,3.1302,3.1304,3.133,3.1354,3.1305,3.1306,3.14,3.1403,3.1406,3.1452,0,0,0,0,0,0,3.1307,3.1311,3.1326,3.1321,3.1324,3.1358,3.1321,3.1318,3.1323,3.1319,3.1316,3.1314,3.1301,3.1328,3.1332,3.1355,3.1307,3.1398,3.1402,3.1405,3.1448,3.1456,3.1462,0,0,0,0,0,3.1306,3.1339,3.1327,3.133,3.1342,3.136,3.1361,3.1345,3.1325,3.1341,3.1335,3.1314,3.1351,3.1331,3.1335,3.1359,3.1397,3.1401,3.1404,3.1445,3.1454,3.1462,0,0,0,0,0,0,3.1345,3.1337,3.1325,3.1357,3.1359,3.1353,3.1372,3.1356,3.1364,3.1359,3.134,3.1339,3.1369,3.1367,3.1345,3.14,3.137,3.1375,3.14,3.1409,3.1416,3.1415,3.1309,0,0,0,0,0,3.1358,3.1373,3.1365,3.1394,3.1396,3.1384,3.1391,3.1379,3.1381,3.1381,3.1377,3.138,3.1392,3.14,3.1411,3.1448,3.1447,3.1467,3.1474,3.148,3.1484,3.1505,3.1514,3.1419,3.1419,3.1419,0,0,3.1384,3.1382,3.1392,3.1402,3.1403,3.1419,3.1385,3.1403,3.1415,3.1384,3.1409,3.1406,3.1408,3.144,3.1454,3.1439,3.151,3.1485,3.149,3.1491,3.151,3.1519,3.1527,3.1422,3.1422,3.1421,0,0,3.1439,3.1439,3.1464,3.1466,3.1468,3.146,3.1466,3.1463,3.146,3.1485,3.1462,3.1477,3.1498,3.15,3.1504,3.1564,3.1546,3.1568,3.1605,3.1626,3.1633,3.164,3.1662,3.167,3.1573,3.1573,3.1573,0,3.1471,3.1495,3.1479,3.1499,3.1505,3.1479,3.1504,3.1507,3.1512,3.1517,3.15,3.1528,3.1527,3.156,3.1575,3.1579,3.1586,3.1568,3.1633,3.164,3.1646,3.1666,3.1674,3.1576,3.1575,3.1575,3.1575,0,3.1534,3.1551,3.1571,3.1578,3.1586,3.1609,3.1597,3.1607,3.1595,3.1589,3.1616,3.1615,3.1625,3.1633,3.1621,3.1665,3.1656,3.1637,3.1607,3.1658,3.1677,3.1684,3.1579,3.1578,3.1578,3.1577,0,0,3.1612,3.1612,3.162,3.1623,3.1625,3.1637,3.166,3.1671,3.1681,3.1686,3.1705,3.1725,3.1708,3.1712,3.1701,3.1719,3.1768,3.1698,3.1698,3.1711,3.1818,3.1832,3.1842,3.1756,3.1758,3.1759,3.1818,0,3.1667,3.1705,3.1692,3.1731,3.1747,3.1724,3.1744,3.1748,3.1743,3.1757,3.1752,3.1767,3.1743,3.1746,3.1763,3.1758,3.1789,3.1754,3.1774,3.1775,3.1774,3.1851,3.1866,3.1922,3.1825,3.1826,3.1827,0,3.1734,3.1744,3.1785,3.1785,3.1791,3.1809,3.182,3.1833,3.1837,3.1833,3.1839,3.1825,3.1848,3.1819,3.185,3.1827,3.1834,3.1834,3.1836,3.1836,3.1804,3.1854,3.1939,3.1947,3.1839,3.1838,3.1837,0,3.1788,3.1811,3.1839,3.1842,3.1844,3.1857,3.1858,3.1861,3.1869,3.1878,3.1884,3.1895,3.1902,3.1911,3.1901,3.188,3.1935,3.1904,3.1932,3.1932,3.1944,3.1943,3.203,3.1949,3.1949,3.1949,3.1949,0,3.185,3.1876,3.1863,3.188,3.1909,3.1895,3.1925,3.1923,3.1926,3.1943,3.1924,3.194,3.1925,3.194,3.1932,3.196,3.1963,3.1961,3.1958,3.1962,3.1963,3.1967,3.1962,3.1951,3.1951,3.195,3.195,0,3.1914,3.1907,3.1936,3.1935,3.1936,3.1958,3.1957,3.1974,3.1969,3.1991,3.1995,3.1988,3.2005,3.1996,3.2013,3.2007,3.2044,3.2036,3.2043,3.2041,3.2069,3.2067,3.2162,3.2174,3.2085,3.2086,3.2087,0,3.1954,3.1974,3.1976,3.1987,3.1989,3.2006,3.2015,3.2003,3.2013,3.202,3.2036,3.2052,3.2063,3.2092,3.2088,3.2102,3.2094,3.2127,3.2096,3.21,3.2095,3.2094,3.2096,3.2133,3.2134,3.2135,3.2135,0,3.2025,3.2021,3.2035,3.2048,3.206,3.2069,3.2077,3.2087,3.2075,3.2087,3.2105,3.2115,3.2133,3.2149,3.2162,3.2163,3.2148,3.2146,3.2153,3.2157,3.216,3.2159,3.206,3.2143,3.2142,3.2142,3.2141,3.2141,3.2079,3.2096,3.2101,3.2117,3.2123,3.2131,3.2147,3.2145,3.216,3.2174,3.2167,3.2188,3.2193,3.2208,3.2212,3.2229,3.2216,3.2226,3.2228,3.2231,3.2235,3.2158,3.2231,3.2231,3.223,3.223,3.223,0,3.2149,3.2152,3.2168,3.218,3.2194,3.2179,3.2188,3.22,3.2219,3.2226,3.2238,3.226,3.2276,3.2275,3.229,3.2303,3.2297,3.2308,3.2306,3.2307,3.2246,3.2238,3.2313,3.2313,3.2313,3.2313,3.2313,3.2313,3.2188,3.2217,3.2214,3.2245,3.2248,3.2269,3.2275,3.2284,3.2289,3.2314,3.2328,3.2327,3.2331,3.2346,3.2361,3.236,3.2366,3.238,3.2377,3.2319,3.2311,3.2303,3.2296,3.2382,3.2382,3.2437,3.2437,3.2438]},{"header":{"parameterUnit":"m.s-1","parameterCategory":1,"la1":30.2991,"la2":30.254,"lo1":-89.0895,"lo2":-89.0444,"dx":0.0017,"dy":0.0017,"nx":28,"ny":28,"refTime":"2022-11-15T09:00:00:Z","depth":0,"parameterNumber":3,"parameterNumberName":"V-component_of_WINDS"},"data":[0,0,0,0,0,0,0,0,0,0,0,0,0,0,0,0,0,0,0,0,0,0,0,0,0,0,0,0,0,0,0,0,0,0,0,0,0,0,0,0,0,0,0,0,0,0,0,0,0,0,0,0,0,0,0,0,0,0,-6.5544,-6.5545,0,-6.5648,-6.5649,-6.565,-6.5619,-6.5617,-6.5615,-6.5613,-6.5715,-6.5719,-6.5724,0,0,0,0,0,0,0,0,0,0,0,0,0,-6.5315,-6.5319,-6.5544,-6.5545,-6.5547,-6.5648,-6.5649,-6.5651,-6.5619,-6.5617,-6.5614,-6.5612,-6.5713,-6.5719,-6.5724,0,0,0,0,0,0,0,0,0,0,0,0,0,-6.5416,-6.5321,-6.5544,-6.5543,-6.5544,-6.5648,-6.5649,-6.5651,-6.562,-6.5617,-6.5613,-6.561,-6.5711,-6.5718,-6.5725,-6.5834,0,0,-6.5747,-6.575,0,0,0,0,0,0,0,0,-6.5411,-6.5425,-6.5542,-6.5543,-6.5545,-6.5617,-6.5606,-6.5712,-6.5621,-6.5591,-6.5612,-6.5609,-6.5685,-6.5694,-6.572,-6.5839,-6.5843,-6.5747,-6.5752,-6.5755,-6.5757,0,0,0,0,0,0,0,-6.5404,-6.542,-6.5585,-6.5544,-6.5545,-6.5537,-6.5548,-6.5626,-6.5655,-6.5593,-6.5591,-6.5604,-6.5685,-6.5713,-6.5722,-6.5845,-6.5747,-6.5754,-6.5758,-6.5761,-6.606,-6.6063,0,0,0,0,0,0,-6.5396,-6.5414,-6.5582,-6.5588,-6.5468,-6.5544,-6.5556,-6.5597,-6.5654,-6.5659,-6.5607,-6.5602,-6.5703,-6.5714,-6.5726,-6.5858,-6.5755,-6.5761,-6.5765,-6.6056,-6.606,-6.6064,0,0,0,0,0,0,-6.5391,-6.5411,-6.5577,-6.5501,-6.5521,-6.5551,-6.5598,-6.5601,-6.563,-6.5664,-6.5669,-6.5631,-6.5701,-6.5716,-6.5808,-6.5861,-6.5765,-6.5771,-6.6052,-6.6057,-6.6062,-6.6123,0,0,0,0,0,0,-6.5385,-6.541,-6.5452,-6.5502,-6.5526,-6.5659,-6.5601,-6.5605,-6.5643,-6.5638,-6.5688,-6.5693,-6.5699,-6.5798,-6.5815,-6.5869,-6.5777,-6.6047,-6.6054,-6.6061,-6.6116,-6.613,-6.6141,0,0,0,0,0,-6.5377,-6.5463,-6.5454,-6.5475,-6.5579,-6.5662,-6.5675,-6.5682,-6.5647,-6.5689,-6.5712,-6.5692,-6.5853,-6.5807,-6.5827,-6.5884,-6.6044,-6.6052,-6.606,-6.6111,-6.6127,-6.6141,0,0,0,0,0,0,-6.5416,-6.547,-6.546,-6.5566,-6.561,-6.5657,-6.571,-6.5699,-6.5753,-6.5745,-6.575,-6.5762,-6.5857,-6.5879,-6.5828,-6.5993,-6.5943,-6.5955,-6.5975,-6.5991,-6.6003,-6.5995,-6.5783,0,0,0,0,0,-6.5438,-6.5502,-6.5545,-6.5634,-6.5657,-6.568,-6.5716,-6.5718,-6.5763,-6.5781,-6.581,-6.5853,-6.5914,-6.5954,-6.6011,-6.612,-6.613,-6.6169,-6.6181,-6.6191,-6.6202,-6.6262,-6.628,-6.6092,-6.6092,-6.6091,0,0,-6.5482,-6.5519,-6.5559,-6.5643,-6.5677,-6.5743,-6.5696,-6.5766,-6.5815,-6.5791,-6.5881,-6.5904,-6.5953,-6.6054,-6.61,-6.6076,-6.6257,-6.6202,-6.621,-6.6215,-6.6272,-6.629,-6.6306,-6.6097,-6.6096,-6.6095,0,0,-6.5596,-6.5631,-6.5709,-6.5746,-6.5799,-6.5815,-6.5834,-6.5883,-6.5898,-6.5988,-6.5972,-6.603,-6.6134,-6.617,-6.6202,-6.6333,-6.6316,-6.6351,-6.6416,-6.6475,-6.649,-6.6503,-6.655,-6.6567,-6.6362,-6.6362,-6.6362,0,-6.5643,-6.5743,-6.5751,-6.5824,-6.5862,-6.5846,-6.5925,-6.596,-6.6029,-6.6054,-6.6027,-6.6159,-6.619,-6.6301,-6.6333,-6.6359,-6.6381,-6.6345,-6.6487,-6.6501,-6.6513,-6.6558,-6.6576,-6.6366,-6.6365,-6.6365,-6.6364,0,-6.5799,-6.5869,-6.5926,-6.5995,-6.6039,-6.6115,-6.6134,-6.6178,-6.6176,-6.6194,-6.6287,-6.6325,-6.6391,-6.6417,-6.6415,-6.6528,-6.6512,-6.6486,-6.6435,-6.6535,-6.6577,-6.6594,-6.6371,-6.637,-6.6369,-6.6368,0,0,-6.5939,-6.6014,-6.6035,-6.6067,-6.6126,-6.618,-6.6255,-6.6322,-6.6359,-6.6408,-6.6471,-6.6561,-6.6538,-6.6575,-6.6577,-6.6629,-6.6731,-6.6597,-6.6598,-6.6621,-6.6858,-6.6877,-6.6897,-6.6721,-6.6724,-6.6727,-6.6854,0,-6.6058,-6.6193,-6.6203,-6.6324,-6.6389,-6.6376,-6.6442,-6.6485,-6.6505,-6.6562,-6.6582,-6.6647,-6.6612,-6.6634,-6.6684,-6.6708,-6.6779,-6.6699,-6.6779,-6.6782,-6.6767,-6.6919,-6.6939,-6.7057,-6.6871,-6.6873,-6.6876,0,-6.6215,-6.6271,-6.6399,-6.6451,-6.6479,-6.6538,-6.66,-6.6655,-6.6704,-6.6715,-6.6757,-6.6753,-6.6831,-6.6779,-6.6885,-6.6831,-6.6865,-6.6881,-6.6886,-6.6893,-6.6834,-6.693,-6.7094,-6.7112,-6.6902,-6.6899,-6.6898,0,-6.6304,-6.6412,-6.6503,-6.6531,-6.6593,-6.6636,-6.6664,-6.671,-6.675,-6.6804,-6.683,-6.6892,-6.6926,-6.6974,-6.6986,-6.6947,-6.7093,-6.7042,-6.7104,-6.7104,-6.7134,-6.7132,-6.7306,-6.7157,-6.7156,-6.7156,-6.7156,0,-6.6436,-6.6515,-6.6544,-6.66,-6.6689,-6.67,-6.6787,-6.6812,-6.6854,-6.6914,-6.6906,-6.6962,-6.6976,-6.7035,-6.7045,-6.7133,-6.7148,-6.7158,-6.716,-6.7159,-6.7157,-6.718,-6.7172,-6.7161,-6.716,-6.7159,-6.7158,0,-6.655,-6.6573,-6.6672,-6.6725,-6.674,-6.6803,-6.6847,-6.6901,-6.692,-6.6997,-6.7015,-6.7045,-6.7115,-6.7133,-6.7215,-6.7222,-6.7325,-6.7319,-6.7309,-6.7309,-6.7369,-6.7364,-6.7564,-6.7591,-6.7424,-6.7426,-6.7427,0,-6.6633,-6.6694,-6.6754,-6.6795,-6.6825,-6.6891,-6.6932,-6.6946,-6.6989,-6.7051,-6.7098,-6.7167,-6.7222,-6.7334,-6.7362,-6.7425,-6.742,-6.7487,-6.743,-6.7427,-6.7422,-6.7418,-6.7424,-6.7497,-6.7499,-6.75,-6.7501,0,-6.6777,-6.6786,-6.6847,-6.6913,-6.6963,-6.7015,-6.7064,-6.7098,-6.7119,-6.7168,-6.724,-6.7284,-6.7369,-6.7437,-6.7502,-6.7529,-6.7519,-6.7519,-6.7537,-6.7536,-6.7528,-6.7534,-6.7338,-6.7514,-6.7513,-6.7512,-6.7511,-6.7511,-6.6878,-6.6932,-6.6984,-6.7052,-6.7092,-6.7139,-6.7193,-6.722,-6.7281,-6.7353,-6.7357,-6.7436,-6.7484,-6.757,-6.7602,-6.7663,-6.7642,-6.7668,-6.7674,-6.768,-6.7686,-6.7519,-6.7674,-6.7674,-6.7674,-6.7673,-6.7673,0,-6.7022,-6.7055,-6.7118,-6.7189,-6.7244,-6.7232,-6.7286,-6.7332,-6.7402,-6.7449,-6.7505,-6.7588,-6.7655,-6.769,-6.7757,-6.7799,-6.7796,-6.7816,-6.7813,-6.7819,-6.77,-6.7678,-6.7817,-6.7817,-6.7817,-6.7817,-6.7817,-6.7817,-6.7103,-6.7194,-6.721,-6.7321,-6.7353,-6.7432,-6.7464,-6.7508,-6.7546,-6.764,-6.7697,-6.772,-6.7762,-6.7832,-6.7893,-6.7902,-6.7926,-6.7949,-6.7955,-6.7842,-6.7828,-6.7813,-6.7793,-6.7954,-6.7954,-6.8069,-6.807,-6.8071]}]]